[[{"header":{"parameterUnit":"m.s-1","parameterCategory":1,"la1":30.2991,"la2":30.254,"lo1":-89.0895,"lo2":-89.0444,"dy":0.0017,"dx":0.0017,"nx":28,"ny":28,"refTime":"2025-04-14T21:00:00:Z","depth":0,"parameterNumber":2,"parameterNumberName":"U-component_of_WINDS"},"data":[0,0,0,0,0,0,0,0,0,0,0,0,0,0,0,0,0,0,0,0,0,0,0,0,0,0,0,0,0,0,0,0,0,0,0,0,0,0,0,0,0,0,0,0,0,0,0,0,0,0,0,0,0,0,0,0,0,0,-1.4957,-1.4958,0,-1.5071,-1.5072,-1.5073,-1.5017,-1.5014,-1.5011,-1.5008,-1.513,-1.5136,-1.5142,0,0,0,0,0,0,0,0,0,0,0,0,0,-1.4695,-1.47,-1.4956,-1.4958,-1.4959,-1.507,-1.5072,-1.5074,-1.5018,-1.5014,-1.501,-1.5007,-1.5128,-1.5135,-1.5142,0,0,0,0,0,0,0,0,0,0,0,0,0,-1.4809,-1.4702,-1.4956,-1.4945,-1.4945,-1.507,-1.5072,-1.5074,-1.5018,-1.5014,-1.501,-1.5005,-1.5126,-1.5134,-1.5143,-1.5288,0,0,-1.5171,-1.5175,0,0,0,0,0,0,0,0,-1.4802,-1.4818,-1.4945,-1.4946,-1.4946,-1.5025,-1.5024,-1.5146,-1.502,-1.4991,-1.5008,-1.5003,-1.5099,-1.511,-1.5141,-1.5294,-1.5299,-1.5172,-1.5177,-1.5181,-1.5184,0,0,0,0,0,0,0,-1.4795,-1.4813,-1.5002,-1.4947,-1.4948,-1.4935,-1.4947,-1.5047,-1.5069,-1.4993,-1.4989,-1.5003,-1.5098,-1.5133,-1.5144,-1.5301,-1.5171,-1.5179,-1.5185,-1.5189,-1.5579,-1.5584,0,0,0,0,0,0,-1.4786,-1.4807,-1.4998,-1.5005,-1.4862,-1.4944,-1.4956,-1.5004,-1.5067,-1.5073,-1.5007,-1.5,-1.512,-1.5133,-1.5148,-1.5323,-1.5181,-1.5189,-1.5195,-1.5574,-1.558,-1.5586,0,0,0,0,0,0,-1.4781,-1.4804,-1.4993,-1.4905,-1.4928,-1.4953,-1.5007,-1.5009,-1.5043,-1.5078,-1.5082,-1.5038,-1.5117,-1.5135,-1.5254,-1.5327,-1.5193,-1.5202,-1.5569,-1.5576,-1.5583,-1.5674,0,0,0,0,0,0,-1.4774,-1.4802,-1.4857,-1.4907,-1.4933,-1.5097,-1.5012,-1.5014,-1.5058,-1.505,-1.5108,-1.5113,-1.5115,-1.5241,-1.5263,-1.5337,-1.5209,-1.5562,-1.5572,-1.5581,-1.5665,-1.5684,-1.57,0,0,0,0,0,-1.4765,-1.4878,-1.486,-1.4883,-1.5001,-1.5101,-1.5116,-1.5114,-1.5064,-1.512,-1.5142,-1.5111,-1.5314,-1.5253,-1.5278,-1.5355,-1.5558,-1.5569,-1.558,-1.5657,-1.568,-1.5699,0,0,0,0,0,0,-1.4838,-1.4885,-1.4865,-1.4998,-1.5045,-1.5091,-1.5161,-1.5139,-1.5203,-1.5193,-1.5189,-1.5203,-1.5326,-1.5352,-1.5283,-1.5499,-1.5428,-1.5445,-1.5479,-1.5501,-1.5518,-1.5511,-1.5216,0,0,0,0,0,-1.4869,-1.4945,-1.4982,-1.5096,-1.5121,-1.5137,-1.518,-1.5174,-1.5224,-1.5245,-1.5276,-1.5327,-1.5402,-1.5452,-1.5524,-1.5667,-1.568,-1.5732,-1.575,-1.5764,-1.578,-1.586,-1.5884,-1.5623,-1.5623,-1.5622,0,0,-1.4936,-1.497,-1.5019,-1.5111,-1.5148,-1.5228,-1.5154,-1.5242,-1.5302,-1.5259,-1.5373,-1.5397,-1.5454,-1.5586,-1.5646,-1.5612,-1.5854,-1.5779,-1.579,-1.5798,-1.5874,-1.5899,-1.5921,-1.563,-1.5629,-1.5628,0,0,-1.5098,-1.5131,-1.523,-1.5268,-1.5323,-1.5333,-1.5357,-1.5406,-1.542,-1.5534,-1.5504,-1.5575,-1.5705,-1.5747,-1.5786,-1.5963,-1.5938,-1.5986,-1.608,-1.6158,-1.6178,-1.6197,-1.6263,-1.6286,-1.6001,-1.6001,-1.6001,0,-1.5174,-1.5292,-1.5284,-1.5375,-1.5417,-1.5379,-1.5481,-1.5519,-1.5595,-1.5627,-1.5586,-1.5748,-1.5784,-1.5926,-1.597,-1.6001,-1.603,-1.5982,-1.6176,-1.6194,-1.6211,-1.6274,-1.6299,-1.6007,-1.6006,-1.6006,-1.6005,0,-1.5384,-1.5466,-1.554,-1.5614,-1.5664,-1.576,-1.5768,-1.5821,-1.581,-1.5825,-1.5942,-1.5983,-1.6063,-1.6095,-1.6086,-1.6237,-1.6214,-1.6175,-1.6104,-1.6242,-1.6301,-1.6325,-1.6015,-1.6013,-1.6011,-1.601,0,0,-1.5599,-1.5666,-1.5693,-1.5727,-1.5785,-1.5849,-1.5943,-1.602,-1.6066,-1.6119,-1.62,-1.631,-1.6274,-1.6318,-1.6313,-1.6381,-1.6522,-1.6333,-1.6335,-1.637,-1.6694,-1.6726,-1.6754,-1.6504,-1.6509,-1.6512,-1.669,0,-1.5767,-1.5931,-1.5926,-1.608,-1.6157,-1.6122,-1.6204,-1.625,-1.6266,-1.6335,-1.6352,-1.6432,-1.6376,-1.6403,-1.6468,-1.6491,-1.6588,-1.6478,-1.6582,-1.6586,-1.6572,-1.6784,-1.6818,-1.6984,-1.6713,-1.6717,-1.672,0,-1.5986,-1.6046,-1.6207,-1.6254,-1.6287,-1.6361,-1.6431,-1.6496,-1.6547,-1.6554,-1.6603,-1.6587,-1.6685,-1.6609,-1.6744,-1.667,-1.6712,-1.6729,-1.6736,-1.6748,-1.6664,-1.6806,-1.7037,-1.7063,-1.6756,-1.6753,-1.675,0,-1.613,-1.6251,-1.6363,-1.6392,-1.645,-1.6503,-1.653,-1.6576,-1.6623,-1.6684,-1.6715,-1.6787,-1.6827,-1.6884,-1.689,-1.6833,-1.7027,-1.6951,-1.7038,-1.7039,-1.7084,-1.7082,-1.7328,-1.7105,-1.7105,-1.7105,-1.7104,0,-1.6321,-1.6421,-1.6429,-1.6498,-1.661,-1.6604,-1.6716,-1.6737,-1.6779,-1.6854,-1.6827,-1.6898,-1.6898,-1.6971,-1.6975,-1.7088,-1.7106,-1.7116,-1.7117,-1.7121,-1.712,-1.7151,-1.7141,-1.7111,-1.711,-1.7108,-1.7107,0,-1.6502,-1.651,-1.6631,-1.6675,-1.6688,-1.6769,-1.6807,-1.6874,-1.6887,-1.6981,-1.7003,-1.7024,-1.7108,-1.7118,-1.7216,-1.7219,-1.7357,-1.7343,-1.7339,-1.7338,-1.7426,-1.7419,-1.7704,-1.7743,-1.7492,-1.7494,-1.7496,0,-1.6625,-1.6701,-1.6753,-1.68,-1.6829,-1.6906,-1.6952,-1.6949,-1.7,-1.7064,-1.7124,-1.7205,-1.727,-1.7406,-1.7431,-1.7507,-1.7497,-1.7592,-1.7509,-1.751,-1.7502,-1.7499,-1.7508,-1.7609,-1.7612,-1.7614,-1.7616,0,-1.6843,-1.6843,-1.6911,-1.6981,-1.7037,-1.7093,-1.7144,-1.7185,-1.7188,-1.7247,-1.7332,-1.7382,-1.7482,-1.7564,-1.7638,-1.7667,-1.7644,-1.7641,-1.7666,-1.7673,-1.7668,-1.7675,-1.7387,-1.7636,-1.7634,-1.7632,-1.7631,-1.763,-1.7001,-1.7068,-1.7115,-1.7192,-1.723,-1.7279,-1.7344,-1.7364,-1.7435,-1.7515,-1.7509,-1.7604,-1.7654,-1.775,-1.7785,-1.786,-1.7829,-1.7864,-1.7874,-1.7883,-1.7894,-1.7653,-1.7873,-1.7872,-1.7872,-1.7871,-1.7871,0,-1.722,-1.7248,-1.7319,-1.7392,-1.7453,-1.7422,-1.7478,-1.7532,-1.7615,-1.7662,-1.7727,-1.7825,-1.7904,-1.7935,-1.8013,-1.8067,-1.8059,-1.8088,-1.8086,-1.8094,-1.7915,-1.7888,-1.8094,-1.8094,-1.8094,-1.8094,-1.8094,-1.8094,-1.7342,-1.7454,-1.746,-1.7591,-1.7619,-1.771,-1.7745,-1.7791,-1.7829,-1.794,-1.8005,-1.8024,-1.8065,-1.8146,-1.8218,-1.8225,-1.8256,-1.8291,-1.8294,-1.8128,-1.8106,-1.8084,-1.8059,-1.8297,-1.8297,-1.8466,-1.8468,-1.8469]},{"header":{"parameterUnit":"m.s-1","parameterCategory":1,"la1":30.2991,"la2":30.254,"lo1":-89.0895,"lo2":-89.0444,"dy":0.0017,"dx":0.0017,"nx":28,"ny":28,"refTime":"2025-04-14T21:00:00:Z","depth":0,"parameterNumber":3,"parameterNumberName":"V-component_of_WINDS"},"data":[0,0,0,0,0,0,0,0,0,0,0,0,0,0,0,0,0,0,0,0,0,0,0,0,0,0,0,0,0,0,0,0,0,0,0,0,0,0,0,0,0,0,0,0,0,0,0,0,0,0,0,0,0,0,0,0,0,0,-4.0679,-4.068,0,-4.0724,-4.0725,-4.0725,-4.0645,-4.0642,-4.0639,-4.0637,-4.0681,-4.0685,-4.0689,0,0,0,0,0,0,0,0,0,0,0,0,0,-4.0521,-4.0525,-4.0679,-4.068,-4.0681,-4.0724,-4.0725,-4.0726,-4.0645,-4.0642,-4.0638,-4.0635,-4.068,-4.0684,-4.0689,0,0,0,0,0,0,0,0,0,0,0,0,0,-4.0581,-4.0526,-4.0679,-4.0646,-4.0643,-4.0724,-4.0725,-4.0726,-4.0646,-4.0642,-4.0638,-4.0634,-4.0679,-4.0684,-4.0689,-4.0805,0,0,-4.0706,-4.0709,0,0,0,0,0,0,0,0,-4.0577,-4.0586,-4.065,-4.0648,-4.0645,-4.0675,-4.0685,-4.0752,-4.0647,-4.0645,-4.0637,-4.0632,-4.0682,-4.0687,-4.0705,-4.0807,-4.0809,-4.0707,-4.071,-4.0713,-4.0714,0,0,0,0,0,0,0,-4.0573,-4.0584,-4.0697,-4.0651,-4.0648,-4.0627,-4.0631,-4.0698,-4.0686,-4.0645,-4.0639,-4.0645,-4.068,-4.0699,-4.0705,-4.081,-4.0707,-4.0712,-4.0715,-4.0717,-4.1008,-4.1012,0,0,0,0,0,0,-4.0574,-4.0581,-4.0696,-4.0698,-4.0601,-4.0634,-4.0638,-4.0669,-4.0685,-4.0683,-4.0649,-4.0641,-4.0692,-4.0699,-4.0706,-4.0842,-4.0713,-4.0718,-4.0721,-4.1004,-4.1009,-4.1014,0,0,0,0,0,0,-4.0571,-4.0585,-4.0694,-4.0638,-4.0651,-4.0641,-4.0677,-4.0672,-4.0692,-4.0688,-4.0685,-4.0671,-4.0689,-4.0698,-4.0781,-4.0842,-4.072,-4.0725,-4.0998,-4.1005,-4.1011,-4.1115,0,0,0,0,0,0,-4.0566,-4.0584,-4.0629,-4.064,-4.0654,-4.0769,-4.068,-4.0676,-4.0702,-4.0692,-4.0708,-4.0706,-4.0687,-4.0773,-4.0786,-4.0848,-4.073,-4.0993,-4.1001,-4.1009,-4.1106,-4.1124,-4.1139,0,0,0,0,0,-4.0561,-4.0656,-4.0631,-4.0645,-4.0709,-4.0773,-4.078,-4.0756,-4.0707,-4.0751,-4.0748,-4.0706,-4.0833,-4.0782,-4.0797,-4.0861,-4.0989,-4.0999,-4.1008,-4.1098,-4.112,-4.1139,0,0,0,0,0,0,-4.0652,-4.0657,-4.063,-4.0731,-4.0752,-4.0759,-4.0814,-4.078,-4.0816,-4.0805,-4.0773,-4.0777,-4.0866,-4.0871,-4.0814,-4.0972,-4.0903,-4.0916,-4.0966,-4.0987,-4.1004,-4.1,-4.0734,0,0,0,0,0,-4.0684,-4.0735,-4.0736,-4.0826,-4.0838,-4.0824,-4.0851,-4.083,-4.085,-4.0859,-4.0862,-4.0883,-4.0927,-4.0957,-4.0998,-4.1106,-4.1107,-4.1157,-4.1174,-4.1188,-4.1199,-4.1256,-4.1277,-4.1046,-4.1046,-4.1046,0,0,-4.075,-4.0759,-4.0793,-4.0844,-4.0858,-4.0911,-4.0832,-4.0892,-4.0931,-4.0867,-4.0945,-4.0949,-4.097,-4.1065,-4.1107,-4.1072,-4.1263,-4.12,-4.1211,-4.1215,-4.1268,-4.129,-4.1309,-4.1053,-4.1051,-4.105,0,0,-4.0897,-4.091,-4.0985,-4.1001,-4.1023,-4.1013,-4.1031,-4.1043,-4.1043,-4.1121,-4.1074,-4.1119,-4.1197,-4.1213,-4.1232,-4.1385,-4.1347,-4.1399,-4.1487,-4.1543,-4.1561,-4.1577,-4.1631,-4.1651,-4.1411,-4.1411,-4.1411,0,-4.0977,-4.1056,-4.1028,-4.1091,-4.1114,-4.106,-4.1135,-4.1151,-4.1185,-4.1202,-4.1163,-4.1258,-4.1268,-4.1366,-4.1404,-4.1421,-4.144,-4.1397,-4.1561,-4.1576,-4.1591,-4.1642,-4.1662,-4.1417,-4.1417,-4.1416,-4.1415,0,-4.1152,-4.1208,-4.1266,-4.13,-4.133,-4.1399,-4.1381,-4.1414,-4.139,-4.1385,-4.1464,-4.1474,-4.1516,-4.1537,-4.1515,-4.1632,-4.161,-4.1566,-4.1495,-4.162,-4.1667,-4.1686,-4.1426,-4.1424,-4.1422,-4.1421,0,0,-4.1359,-4.1377,-4.1398,-4.1413,-4.1433,-4.1475,-4.1541,-4.1581,-4.161,-4.1635,-4.1689,-4.1756,-4.1715,-4.1736,-4.1715,-4.1764,-4.1883,-4.1714,-4.1714,-4.1745,-4.2012,-4.2045,-4.2068,-4.1858,-4.1862,-4.1865,-4.201,0,-4.1505,-4.162,-4.1596,-4.1708,-4.1758,-4.1706,-4.1763,-4.1781,-4.1777,-4.1818,-4.1813,-4.1861,-4.1804,-4.1817,-4.1862,-4.1859,-4.1936,-4.1848,-4.1907,-4.191,-4.1904,-4.2093,-4.2127,-4.2264,-4.2028,-4.2031,-4.2034,0,-4.1692,-4.1724,-4.1841,-4.1852,-4.1872,-4.1924,-4.1959,-4.1999,-4.2018,-4.2011,-4.2035,-4.2004,-4.2068,-4.1997,-4.2085,-4.2025,-4.2048,-4.205,-4.2054,-4.2059,-4.1979,-4.2102,-4.2307,-4.2328,-4.2063,-4.206,-4.2058,0,-4.183,-4.1903,-4.1982,-4.1996,-4.2011,-4.2048,-4.2056,-4.2071,-4.2096,-4.2127,-4.2143,-4.218,-4.2201,-4.223,-4.2209,-4.2159,-4.23,-4.2227,-4.2296,-4.2297,-4.2328,-4.2326,-4.254,-4.2343,-4.2343,-4.2343,-4.2342,0,-4.1996,-4.207,-4.2044,-4.2093,-4.2173,-4.2145,-4.2225,-4.2226,-4.2239,-4.2287,-4.2244,-4.2289,-4.2259,-4.2302,-4.2286,-4.2361,-4.237,-4.2366,-4.2361,-4.237,-4.2371,-4.2384,-4.2374,-4.2348,-4.2347,-4.2346,-4.2345,0,-4.2165,-4.2151,-4.2233,-4.224,-4.2243,-4.2302,-4.2308,-4.2352,-4.2345,-4.2405,-4.2418,-4.2406,-4.2454,-4.2436,-4.2487,-4.2476,-4.2571,-4.2554,-4.2565,-4.2561,-4.263,-4.2624,-4.286,-4.2889,-4.2674,-4.2676,-4.2678,0,-4.2271,-4.2327,-4.2339,-4.2368,-4.2379,-4.2426,-4.2452,-4.2426,-4.2454,-4.2479,-4.2521,-4.2565,-4.2598,-4.2677,-4.2672,-4.271,-4.2693,-4.2773,-4.2699,-4.2706,-4.2694,-4.2691,-4.2696,-4.2788,-4.2791,-4.2793,-4.2795,0,-4.2462,-4.2452,-4.2492,-4.2529,-4.2561,-4.2589,-4.2612,-4.2638,-4.2613,-4.2647,-4.2696,-4.2722,-4.2773,-4.2817,-4.2851,-4.2858,-4.2822,-4.2818,-4.2836,-4.2846,-4.285,-4.2848,-4.2606,-4.2813,-4.2811,-4.281,-4.2809,-4.2808,-4.2603,-4.2649,-4.2665,-4.271,-4.2725,-4.2748,-4.279,-4.2788,-4.2828,-4.2868,-4.285,-4.2906,-4.2921,-4.2964,-4.2975,-4.3018,-4.2987,-4.3013,-4.3019,-4.3026,-4.3035,-4.2843,-4.3024,-4.3023,-4.3023,-4.3022,-4.3022,0,-4.2791,-4.2798,-4.284,-4.2875,-4.291,-4.2873,-4.2897,-4.2929,-4.2979,-4.2997,-4.3031,-4.3086,-4.3128,-4.3126,-4.3165,-4.3199,-4.3184,-4.321,-4.3207,-4.3209,-4.3061,-4.3041,-4.3222,-4.3222,-4.3222,-4.3222,-4.3222,-4.3222,-4.2893,-4.2969,-4.2961,-4.3044,-4.305,-4.3105,-4.3122,-4.3142,-4.3156,-4.322,-4.3255,-4.3254,-4.3264,-4.3302,-4.3339,-4.3337,-4.3353,-4.3386,-4.3378,-4.324,-4.322,-4.3201,-4.3182,-4.339,-4.339,-4.3523,-4.3524,-4.3525]}]]